SL-8 R/B

Satellite information

Favourite Embed

Satellite Type and Status

ROCKET BODYIN ORBIT

Key statistics

Satellite SL-8 R/B at a glance.

Uptime

16857

Days in orbit

Revolutions

≈ 14.4

Per day

Orbit

LEO

Low Earth Orbit

Inclination

74.0

Latest

Satellite identification and parameters

Extended collection of information and parameters for SL-8 R/B.

Object identification

Identified? True

Debris? False

Object name: SL-8 R/B

International designator: 1979-078B

Object number (NORAD): 11511

Object ID (CCSDS): 11511

Country: COMMONWEALTH OF INDEPENDENT STATES (CIS)

Current information (Y/N): Y

RCS size: LARGE

Orbital parameters

Period: 100.127 minutes

Inclination: 74.0333 deg

SMA: 7142.679 km

Apoapsis: 775.966 km

Periapsis: 753.121 km

RAAN: 108.4103 deg

Eccentricy: 0.0015992

Argument of periapsis: 324.1995 deg

Mean anomaly: 35.8086 deg

Mean motion: 14.38172912 rev/day

Mean motion (dot): 0.0000035 rev/day2

B* drag term: 0.00012401 1/REarth

Two-line elements (TLE)

Creation date: Oct. 21, 2025, 11:56 p.m.

Reference frame: TEME

Reference center: EARTH

Epoch: Oct. 21, 2025, 8:14 p.m. UTC

TLE line 0: 0 SL-8 R/B

TLE line 1: 1 11511U 79078B 25294.84340645 .00000350 00000-0 12401-3 0 9995

TLE line 2: 2 11511 74.0333 108.4103 0015992 324.1995 35.8086 14.38172912416286

Live tracking on map

Real-time ground track for satellite SL-8 R/B.

In-orbit conjunctions

A list of the most updated potential collisions computed for object SL-8 R/B.

Target Orbit TCA Probability of collision Miss distance Type
FENGYUN 1C DEB SSO 2025-05-10 15:48:37 0.0001055338 805.0 (m) DEBRIS
VANGUARD DEB MEO 2025-01-20 09:43:33 0.0002580764 351.0 (m) DEBRIS
NOAA 16 DEB SSO 2025-01-19 20:50:24 0.0001005719 254.0 (m) DEBRIS
CZ-4 DEB SSO 2024-10-06 17:42:36 0.0001592007 679.0 (m) DEBRIS
CZ-6A DEB SSO 2024-10-01 08:12:59 0.0003537192 308.0 (m) DEBRIS

Associated space launch

Early warning satellite

SL-8 R/B was lifted into orbit during the mission ‘Molniya-M | US-K 12’, on board a Molniya-M space rocket.

The launch took place on Aug. 28, 1979, 12:17 a.m. from 43/4 (43R).

For more information about the launch, click the button.

Launch to space Molniya-M | US-K 12
Molniya-M | US-K 12

Agency: N/A

Status: Launch Successful

Launch date: Aug. 28, 1979, 12:17 a.m. UTC

Rocket: Molniya-M

Launch pad: 43/4 (43R)

Location: Plesetsk Cosmodrome, Russian Federation

...

Latest news about this satellite

There are no fresh news available about this satellite. Check back as we update our databases every day.


Newsletter sign-up

Weekly statistics, charts and insights to help you stay on top of the space industry.